STARLINK-30516, 57984

Orbit data source: Space-Track

STARLINK-30516, 57984 is a payload satellite owned by SpaceX/Seattle (US) in LEO that was launched on Sat, 30 Sep 2023 UTC via an FALCON 9 launch vehicle from the Air Force Eastern Test Range (AFETR). Payload-class satellites include a variety of spacecraft equipped with specific instruments for various scientific and technological missions. These include communications satellites like Starlink; space stations such as the ISS; scientific satellites like the Hubble; Earth observation satellites from companies like Planet Labs, Umbra, and HawkEye 360; GPS; miniature CubeSats for education and research; and military/defense satellites.

Loading next visibility...
Identifier
57984, 2023-151W
Orbit
LEO
Country
Flag of USUS
Related business
Manufacturer
SpaceX/Seattle
Mission
Operational Commercial Communications
Bus & Motor
STARLINK V2M, Unknown motor
Mass
730 kg wet, ~700 kg dry
Launch date (UTC)
2023-09-30 (3 years ago)
Launch vehicle
FALCON 9
Launch site
Air Force Eastern Test Range (AFETR)
Object type
Payload
Rocket body
Debris
Shape & HBR
Box + 2 Pan, 17.7 m
Radar Cross Section
33.884 m², Large (>1 m²)

Expand to show TLE details & history
Last TLE update: 12 hours ago

TLE from 12 hours ago
0 STARLINK-30516
1 57984U 23151W   26192.85858210  .00001785  00000-0  74332-4 0  9996
2 57984  43.0044  12.8321 0000822 320.9541  39.1251 15.27592964154543
Epoch: 2026-07-11T20:36Z
TLE epoch observation values (Epoch: 2026-07-11T20:36:21.493Z)
Latitude
-0.00004°
Longitude
133.97674°
Altitude
482.349 km
Speed
7.626 km/s
True Right ascension
00h 51m 19s
True Declination
0° 00' 00"
Sunlit
Object was in daylight at epoch
Visualization orbit readout
Latitude
Unknown
Longitude
Unknown
Altitude
Unknown
Speed
Unknown
Apparent Right ascension
Unknown
Apparent Declination
Unknown
Sunlit
N/A
Visualization observer readout
Local Sidereal Time
20:31:58
Azimuth
Unknown
Elevation
Unknown
Doppler factor
Unknown
Orbital elements
Apogee altitude
485.519 km
Perigee altitude
484.391 km
Semi-major axis
6,863.092 km
Eccentricity
0.00008
Inclination
43.0044°
RAAN
12.8321°
Arg. of periapsis
320.9541°
True anomaly
39.13104°
Mean anomaly
39.1251°
Eccentric anomaly
39.12807°
Mean motion
3.81736 °/min
Orbital period
94.31 mins
BSTAR
0.000074332
Loading maneuver chart data...
Computing Atmospheric mass density...
Loading historical data...
Loading historical data...
Loading historical data...
Loading historical data...
Loading historical data...
Loading historical data...
Loading historical data...

Documentation

Showing up to 5 results
|